Lewiston, WA

7:51 AM PDT on October 21, 2017 (GMT -0700)
Lewiston-Nez Perce County

Weather History for KLWS - July, 2014

Change the Weather History Date:

Wednesday, July 23, 2014

  Actual Average Record
Temperature  
Mean Temperature 78 °F 76 °F  
Max Temperature 94 °F 92 °F 109 °F (1959)
Min Temperature 62 °F 61 °F 46 °F (1963)
Degree Days  
Heating Degree Days 0 0  
Month to date heating degree days 0 4  
Since 1 June heating degree days 41 74  
Since 1 July heating degree days 0 4  
Cooling Degree Days 13 11  
Month to date cooling degree days 364 206  
Year to date cooling degree days 482 336  
Since 1 June cooling degree days 454 304  
Growing Degree Days 28 (Base 50)    
Moisture  
Dew Point 55 °F    
Average Humidity 55    
Maximum Humidity 81    
Minimum Humidity 28    
Precipitation  
Precipitation 0.11 in 0.02 in 0.36 in (1992)
Month to date precipitation 0.26 0.53  
Year to date precipitation 6.50 7.71  
Snow  
Snow 0.00 in 0.00 in 0.00 in (1995)
Month to date snowfall 0.0 0.0  
Since 1 June snowfall 0.0 0.0  
Since 1 July snowfall 0.0 0.0  
Snow Depth 0.00 in    
Sea Level Pressure  
Sea Level Pressure 29.94 in    
Wind  
Wind Speed 13 mph (North)    
Max Wind Speed 45 mph    
Max Gust Speed 59 mph    
Visibility 10 miles    
Events Rain , Thunderstorm    
T = Trace of Precipitation, MM = Missing Value Source: NWS Daily Summary

Daily Weather History Graph

Daily Weather History Graph

Search for Another Location

Airport or City:

Trip Planner

Search our weather history database for the weather conditions in past years. The results will help you decide how hot, cold, wet, or windy it might be!

Date:

Astronomy

Jul. 23, 2014 Rise Set
Actual Time 5:19 AM PDT 8:29 PM PDT
Civil Twilight 4:42 AM PDT 9:05 PM PDT
Nautical Twilight 3:55 AM PDT 9:52 PM PDT
Astronomical Twilight 2:57 AM PDT 10:49 PM PDT
Moon 2:43 AM PDT (7/23) 6:00 PM PDT (7/23)
Length of Visible Light 16h 22m
Length of Day
15h 10m
Waning Crescent, 9% of the Moon is Illuminated
Jul 23
Waning Crescent
Jul 26
New
Aug 3
First Quarter
Aug 10
Full
Aug 17
Last Quarter

Hourly Weather History & Observations

Time (PDT) Temp. Heat Index Dew Point Humidity Pressure Visibility Wind Dir Wind Speed Gust Speed Precip Events Conditions
12:56 AM 66.0 °F - 62.1 °F 87% 30.08 in 9.0 mi ESE 9.2 mph - 0.02 in Rain Light Rain
1:56 AM 66.0 °F - 61.0 °F 84% 30.03 in 10.0 mi East 12.7 mph - 0.07 in Rain Light Rain
2:56 AM 66.0 °F - 59.0 °F 78% 30.06 in 10.0 mi East 5.8 mph - 0.00 in Rain Light Rain
3:56 AM 64.9 °F - 60.1 °F 84% 30.03 in 10.0 mi East 5.8 mph - 0.01 in   Clear
4:56 AM 64.9 °F - 60.1 °F 84% 29.95 in 10.0 mi NE 10.4 mph - 0.00 in Rain Light Rain
5:56 AM 64.9 °F - 59.0 °F 81% 29.96 in 10.0 mi South 4.6 mph - 0.00 in   Clear
6:56 AM 68.0 °F - 59.0 °F 73% 29.95 in 10.0 mi ESE 4.6 mph - N/A   Clear
7:56 AM 70.0 °F - 59.0 °F 68% 29.94 in 10.0 mi SE 4.6 mph - N/A   Clear
8:56 AM 73.9 °F - 59.0 °F 59% 29.92 in 10.0 mi SE 6.9 mph - N/A   Clear
9:56 AM 80.1 °F 80.4 °F 57.0 °F 45% 29.89 in 10.0 mi SE 13.8 mph - N/A   Clear
10:56 AM 82.9 °F 82.6 °F 57.9 °F 42% 29.87 in 10.0 mi East 9.2 mph - N/A   Clear
11:56 AM 86.0 °F 84.9 °F 57.0 °F 37% 29.84 in 10.0 mi East 13.8 mph - N/A   Clear
12:56 PM 91.9 °F 90.6 °F 57.0 °F 31% 29.80 in 10.0 mi North 11.5 mph - N/A   Clear
1:56 PM 91.9 °F 90.3 °F 55.9 °F 30% 29.78 in 10.0 mi WNW 13.8 mph 19.6 mph N/A   Clear
2:56 PM 93.0 °F 91.4 °F 55.9 °F 29% 29.76 in 10.0 mi NW 15.0 mph 20.7 mph N/A   Clear
3:56 PM 78.1 °F - 59.0 °F 52% 29.83 in 10.0 mi WNW 28.8 mph 47.2 mph 0.00 in   Scattered Clouds
4:45 PM 69.1 °F - 55.0 °F 61% 29.90 in 10.0 mi WNW 39.1 mph 58.7 mph 0.03 in Thunderstorm Thunderstorm
4:56 PM 69.1 °F - 52.0 °F 54% 29.91 in 10.0 mi WNW 43.7 mph 56.4 mph 0.03 in Thunderstorm Thunderstorm
5:07 PM 68.0 °F - 50.0 °F 52% 29.92 in 10.0 mi WNW 32.2 mph 55.2 mph N/A   Overcast
5:56 PM 68.0 °F - 50.0 °F 52% 29.93 in 10.0 mi NW 16.1 mph 33.4 mph N/A   Scattered Clouds
6:56 PM 68.0 °F - 51.1 °F 55% 29.95 in 10.0 mi NW 10.4 mph 20.7 mph N/A   Clear
7:56 PM 69.1 °F - 48.0 °F 47% 29.96 in 10.0 mi NW 23.0 mph 36.8 mph N/A   Clear
8:56 PM 66.9 °F - 48.9 °F 52% 29.98 in 10.0 mi WNW 19.6 mph 28.8 mph N/A   Partly Cloudy
9:56 PM 66.9 °F - 48.9 °F 52% 30.02 in 10.0 mi WNW 10.4 mph - N/A   Overcast
10:56 PM 66.9 °F - 46.9 °F 49% 30.03 in 10.0 mi WNW 9.2 mph - N/A   Overcast
11:56 PM 66.0 °F - 45.0 °F 47% 30.03 in 10.0 mi NW 13.8 mph - N/A   Overcast